Portada
METAR-TAF:

METAR-TAF

Aeroports :

Jesaq, Iran

latitud: 26-38N, longitud: 057-46E, altitud: 3 m

Observació

L'informe es va fer fa 2 hores i 37 minuts, a les 18:00 UTC
Vent 10 kt del Nord-Oest
Temperatura 25°C
Humitat 74%
Pressió 1011 hPa
Visibilitat: 5000 m
calitja

METAR: OIZJ 041800Z 31010KT 5000 HZ NSC 25/20 Q1011

Hora: 00:07 (20:37 UTC)


TAF: manca

Observacions i pronòstics meteorològics de més de 4000 aeroports (METAR i TAF).

Les estacions disponibles són els punts grocs i vermells al mapa.

Posi el ratolí al punt desitjat per veure el nom de l'estació.

Feu clic per veure les observacions i els pronòstics meteorològics.

Per canviar el mapa: feu clic els botons verds amb una creu de color negre per apropar; al botó verd amb un guió per allunyar la imatge; o en les fletxes verdes per a mapes adjacents.


METAR-TAF: